Location: Ipswich
(52.0579°N, 1.1528°E)
Time: 09:15:49
(UTC+01:00)

ISS - Pass Details

Date: 16 May 2026
Orbit: 414 x 424 km, 51.6° (Epoch: 8 May)

Event Time Altitude Azimuth Distance (km) Brightness Sun altitude
Rises 21:32:10 0° 268° (W) 2,352 0.8 -6.5°
Reaches altitude 10° 21:34:15 10° 268° (W) 1,490 -0.3 -6.8°
Maximum altitude 21:37:36 86° 182° (S) 422 -3.8 -7.1°
Drops below altitude 10° 21:40:57 10° 92° (E) 1,492 -1.4 -7.5°
Enters shadow 21:42:14 - 92° (E) 2,019 -0.7 -7.6°
